GEFSMW_con_probscp_168.txt.gz
Probability
14 14 15 19 22 23 20 18 16 13 9 10 11 12 11 10 9 10 11 11 9 7 6 5 4 5 5 4 4 6 5 4 5 7 6 4 4 5 3 1 1 2 3
15 15 17 20 22 22 19 17 15 12 10 11 12 12 11 10 10 11 11 9 8 8 7 5 5 5 5 5 6 8 8 6 7 7 7 5 5 4 2 1 0 1 2
20 19 20 22 22 20 17 14 13 12 12 12 11 10 10 10 11 12 11 9 7 7 7 5 5 5 5 6 7 9 9 9 8 9 8 7 6 4 2 1 1 1 2
27 25 23 22 20 16 13 10 9 10 11 12 11 9 9 10 11 13 12 10 8 6 5 4 4 4 5 5 6 7 7 8 8 9 9 8 6 4 2 1 1 1 2
33 29 25 22 17 12 9 8 7 7 8 10 11 12 11 11 12 13 12 10 8 6 4 3 3 3 3 3 4 5 5 6 7 8 9 8 7 5 3 2 1 0 1
32 29 25 21 16 11 9 9 8 7 6 8 12 14 14 13 14 13 11 10 8 7 5 3 2 2 1 1 3 4 5 5 7 7 7 7 6 6 4 2 0 0 0
30 28 24 20 16 13 12 12 10 9 8 8 10 13 14 14 14 13 11 8 7 7 6 4 3 2 1 1 3 5 5 5 6 5 5 4 4 5 4 2 1 0 1
32 27 22 18 16 15 14 13 11 10 9 8 9 10 11 12 12 11 10 8 7 6 5 4 3 3 1 1 3 4 4 3 3 2 2 2 3 4 5 4 2 1 2
30 24 18 14 13 13 12 11 10 8 8 7 7 8 9 10 10 10 9 8 7 5 4 3 3 2 1 1 1 1 1 1 1 0 0 1 2 3 4 5 4 3 3
23 19 14 11 10 10 9 9 8 7 6 6 6 8 9 9 9 9 8 7 5 3 2 2 2 1 1 0 0 0 0 0 0 0 0 1 2 3 3 4 5 5 4
16 14 11 11 9 8 7 6 6 6 6 5 6 7 8 8 7 7 7 6 5 3 1 1 1 0 0 0 0 0 0 0 0 0 0 1 2 3 3 3 4 4 5
10 8 8 9 7 6 5 4 4 5 6 5 5 5 6 6 6 6 5 4 4 3 1 0 0 0 0 0 0 0 0 0 0 0 0 0 1 3 3 3 3 4 4
9 7 6 6 5 4 3 3 3 4 5 5 4 3 3 3 4 4 4 3 3 2 1 0 0 0 0 0 0 0 0 0 0 0 0 0 1 2 3 3 3 2 2
10 8 7 5 4 3 2 2 3 3 3 3 2 1 1 1 2 2 2 2 2 1 0 0 0 0 0 0 0 0 0 0 0 0 0 0 1 2 2 2 1 1 0
7 6 6 5 3 1 1 1 1 2 1 1 1 0 0 0 1 1 1 1 1 0 0 0 0 0 0 0 0 0 0 0 0 0 0 0 0 1 1 1 0 0 0
3 3 3 3 1 0 0 0 0 0 0 0 0 0 0 0 0 0 0 0 0 0 0 0 0 0 0 0 0 0 0 0 0 0 0 0 0 0 0 0 0 0 0
1 1 1 1 0 0 0 0 0 0 0 0 0 0 0 0 0 0 0 0 0 0 0 0 0 0 0 0 0 0 0 0 0 0 0 0 0 0 0 0 0 0 0
1 0 0 0 0 0 0 0 0 0 0 0 0 0 0 0 0 0 0 0 0 0 0 0 0 0 0 0 0 0 0 0 0 0 0 0 0 0 0 0 0 0 0
1 0 0 0 0 0 0 0 0 0 0 0 0 0 0 0 0 0 0 0 0 0 0 0 0 0 0 0 0 0 0 0 0 0 0 0 0 0 0 0 0 0 0
1 0 0 0 0 0 0 0 0 0 0 0 0 0 0 0 0 0 0 0 0 0 0 0 0 0 0 0 0 0 0 0 0 0 0 0 0 0 0 0 0 0 0
0 0 0 0 0 0 0 0 0 0 0 0 0 0 0 0 0 0 0 0 0 0 0 0 0 0 0 0 0 0 0 0 0 0 0 0 0 0 0 0 0 0 0
0 0 0 0 0 0 0 0 0 0 0 0 0 0 0 0 0 0 0 0 0 0 0 0 0 0 0 0 0 0 0 0 0 0 0 0 0 0 0 0 0 0 0
0 0 0 0 0 0 0 0 0 0 0 0 0 0 0 0 0 0 0 0 0 0 0 0 0 0 0 0 0 0 0 0 0 0 0 0 0 0 0 0 0 0 0
0 0 0 0 0 0 0 0 0 0 0 0 0 0 0 0 0 0 0 0 0 0 0 0 0 0 0 0 0 0 0 0 0 0 0 0 0 0 0 0 0 0 0
0 0 0 0 0 0 0 0 0 0 0 0 0 0 0 0 0 0 0 0 0 0 0 0 0 0 0 0 0 0 0 0 0 0 0 0 0 0 0 0 0 0 0
0 0 0 0 0 0 0 0 0 0 0 0 0 0 0 0 0 0 0 0 0 0 0 0 0 0 0 0 0 0 0 0 0 0 0 0 0 0 0 0 0 0 0

GEFSMW_con_probscp_174.txt.gz
Probability
53 57 57 54 52 49 45 43 42 41 38 34 30 26 22 19 19 21 22 21 19 19 21 22 25 26 23 17 15 16 15 15 14 11 9 9 8 7 8 7 6 6 6
55 56 55 50 48 47 44 42 41 40 37 33 28 24 21 18 18 20 21 19 17 18 20 21 23 24 23 19 15 14 13 12 11 10 9 8 7 7 7 5 5 5 6
54 54 52 48 46 45 42 39 38 36 33 30 27 24 21 18 18 19 20 19 17 18 19 19 20 21 21 20 16 13 10 9 8 9 10 9 7 6 5 4 3 4 4
49 51 51 48 45 43 40 37 34 31 28 26 26 25 21 18 19 21 20 19 19 19 18 18 17 17 18 17 16 13 10 7 6 6 8 9 8 6 5 4 3 2 2
47 49 50 48 44 41 38 35 33 31 28 26 25 23 19 17 19 20 19 19 19 18 16 14 13 13 13 13 12 11 9 5 3 4 5 7 7 6 4 3 2 2 2
47 48 49 47 42 38 34 33 34 33 29 25 22 21 18 16 16 17 18 19 18 17 14 11 10 9 9 9 8 8 6 3 2 3 5 6 7 5 3 2 1 1 2
47 47 45 42 39 34 32 31 31 29 25 22 20 19 17 16 15 14 16 17 17 16 13 11 10 9 8 7 6 5 4 3 2 3 5 6 6 5 3 1 0 0 1
44 43 41 38 35 33 32 30 27 23 21 20 20 18 17 15 13 12 13 15 16 15 13 11 10 8 7 6 6 4 3 3 1 1 2 4 4 3 2 1 0 0 0
40 40 40 37 34 32 31 29 24 20 19 19 17 16 14 13 10 9 11 14 14 13 11 9 8 7 7 6 6 4 3 2 1 0 0 1 1 1 0 0 0 0 0
37 38 39 37 33 31 29 25 22 19 17 15 13 12 12 10 8 8 10 11 11 10 9 7 7 6 6 6 5 4 3 2 1 0 0 0 0 0 0 0 0 0 0
34 36 36 33 29 26 24 20 17 16 14 11 10 11 10 8 7 7 8 7 7 6 6 6 6 5 4 4 3 2 1 1 0 0 0 0 0 0 0 0 0 0 0
34 35 34 30 24 20 16 13 12 12 11 9 9 10 9 7 5 4 4 3 2 3 3 4 4 4 3 3 3 1 0 0 0 0 0 0 0 0 0 0 0 0 0
35 33 31 26 19 14 11 9 9 8 8 6 6 6 6 4 2 1 1 1 0 1 2 3 3 3 3 2 2 1 0 0 0 0 0 0 0 0 0 0 0 0 0
34 31 27 23 17 12 8 7 6 6 6 5 4 4 3 1 0 0 0 0 0 1 2 2 2 2 1 1 1 1 0 0 0 0 0 0 0 0 0 0 0 0 0
29 27 25 21 15 10 6 4 5 6 5 4 3 3 2 1 0 0 0 0 0 0 1 1 1 1 0 0 0 0 0 0 0 0 0 0 0 0 0 0 0 0 0
23 23 22 18 14 9 5 3 4 5 4 3 2 3 2 1 0 0 0 0 0 0 0 0 0 0 0 0 0 0 1 0 0 0 0 0 0 0 0 0 0 0 0
18 19 19 17 13 7 4 3 4 4 4 3 3 2 1 0 0 0 0 0 0 0 0 0 0 0 0 0 0 0 0 0 0 0 0 0 0 0 0 0 0 0 0
17 18 18 16 11 6 4 3 3 4 3 3 2 1 0 0 0 0 0 0 0 0 0 0 0 0 0 0 0 0 0 0 0 0 0 0 0 0 0 0 0 0 0
20 20 19 15 9 4 3 3 3 3 3 1 1 0 0 0 0 1 1 1 2 1 0 1 1 0 0 0 0 0 0 0 0 1 0 0 0 0 0 0 0 0 0
22 20 17 13 7 3 3 3 3 3 2 1 0 0 0 0 1 2 2 3 3 2 2 2 2 1 0 0 0 0 0 0 0 0 0 0 0 0 0 0 0 0 0
20 17 14 11 6 3 3 3 3 3 1 0 0 0 0 0 1 2 3 3 3 3 3 3 2 1 0 0 0 0 0 0 0 0 0 0 0 0 0 0 0 0 0
16 14 11 7 3 2 2 3 3 2 1 0 0 0 0 0 1 2 2 3 3 3 2 2 1 1 1 0 0 0 0 0 0 0 0 0 0 0 0 0 0 0 0
12 10 6 2 1 0 1 1 2 1 0 0 0 0 0 0 0 1 1 1 2 1 1 1 1 1 1 0 0 0 0 0 0 0 0 0 0 0 0 0 0 0 0
10 7 3 0 0 0 0 0 0 0 0 0 0 0 0 0 0 0 0 0 0 0 0 0 0 1 1 0 0 0 0 0 0 0 0 0 0 0 0 0 0 0 0
7 6 3 0 0 0 0 0 0 0 0 0 0 0 0 0 0 0 0 0 0 0 0 0 0 0 0 0 0 0 0 0 0 0 0 0 0 0 0 0 0 0 0
7 6 4 1 0 0 0 0 0 0 0 0 0 0 0 0 0 0 0 0 0 0 0 0 0 0 0 0 0 0 0 0 0 0 0 0 0 0 0 0 0 0 0

GEFSMW_con_probscp_180.txt.gz
Probability
39 42 43 41 38 35 34 34 31 23 15 12 10 10 9 8 6 5 5 7 9 10 10 9 6 2 0 0 0 0 0 0 0 0 0 0 0 0 0 0 0 1 1
39 39 40 39 38 34 31 30 27 20 14 11 9 9 8 7 5 4 5 6 8 9 9 8 5 1 0 0 0 0 0 0 0 0 0 0 0 0 0 0 0 0 1
37 36 36 37 36 32 28 25 20 14 11 9 8 7 7 5 4 3 4 4 5 6 6 6 4 1 0 0 0 0 0 0 0 0 0 0 0 0 0 0 0 0 0
34 34 35 34 31 27 24 20 14 9 8 7 6 5 5 4 3 3 3 2 2 2 3 3 3 1 0 0 0 0 0 0 0 0 0 0 0 0 0 0 0 0 0
32 33 34 30 25 22 21 18 12 7 6 6 4 3 3 3 3 2 1 1 1 0 1 1 2 1 0 0 0 0 0 0 0 0 0 0 0 0 0 0 0 0 0
30 31 31 27 22 20 19 16 12 8 7 6 4 3 3 3 3 2 0 0 1 1 1 1 1 1 0 0 0 0 0 0 0 0 0 0 0 0 0 0 0 0 0
27 28 28 25 20 17 16 14 11 9 7 5 4 3 3 3 3 2 1 2 2 2 2 2 2 2 1 0 0 0 0 0 0 0 0 0 0 0 0 0 0 0 0
26 27 26 21 16 13 13 13 11 9 7 5 4 4 3 3 3 4 4 4 4 3 3 3 3 2 1 0 0 0 0 0 0 0 0 0 0 0 0 0 0 0 0
27 26 23 18 13 11 11 12 12 10 7 5 4 3 3 3 4 5 6 5 4 3 2 2 2 2 1 0 0 0 0 0 0 0 0 0 0 0 0 0 0 0 0
25 23 20 18 14 11 9 10 10 9 7 5 4 3 3 3 4 5 5 4 2 1 1 1 1 1 0 0 0 0 0 0 0 0 0 0 0 0 0 0 0 0 0
19 18 17 17 15 12 11 10 8 7 5 4 3 3 3 3 3 3 3 1 1 0 0 0 0 0 0 0 0 0 0 0 0 0 0 0 0 0 0 0 0 0 0
17 16 15 15 15 14 13 10 7 5 4 3 3 3 2 2 1 1 1 0 0 0 0 0 0 0 0 0 0 0 0 0 0 0 0 0 0 0 0 0 0 0 0
19 16 14 14 14 14 13 10 6 3 2 2 2 1 1 1 0 0 0 0 0 0 0 0 0 0 0 0 0 0 0 0 0 0 0 0 0 0 0 0 0 0 0
17 14 11 11 12 12 11 8 4 1 1 1 1 0 0 0 0 0 0 0 0 0 0 0 0 0 0 0 0 0 0 0 0 0 0 0 0 0 0 0 0 0 0
11 9 7 7 9 9 8 5 2 0 0 0 0 0 0 0 0 0 0 0 0 0 0 0 0 0 0 0 0 0 0 0 0 0 0 0 0 0 0 0 0 0 0
6 6 5 5 5 5 4 2 1 0 0 0 0 0 0 0 0 0 0 0 0 0 0 0 0 0 0 0 0 0 0 0 0 0 0 0 0 0 0 0 0 0 0
4 4 4 3 3 2 1 1 1 0 0 0 0 0 0 0 0 0 0 0 0 0 0 0 0 0 0 0 0 0 0 0 0 0 0 0 0 0 0 0 0 0 0
4 4 3 3 1 1 0 0 0 0 0 0 0 0 0 0 0 0 0 0 0 0 0 0 0 0 0 0 0 0 0 0 0 0 0 0 0 0 0 0 0 0 0
3 3 3 2 1 0 0 0 0 0 0 0 0 0 0 0 0 0 0 0 0 0 0 0 0 0 0 0 0 0 0 0 0 0 0 0 0 0 0 0 0 0 0
3 3 3 1 0 0 0 0 0 0 0 0 0 0 0 0 0 0 0 0 0 0 0 0 0 0 0 0 0 0 0 0 0 0 0 0 0 0 0 0 0 0 0
2 2 2 1 0 0 0 0 0 0 0 0 0 0 0 0 0 0 0 0 0 0 0 0 0 0 0 0 0 0 0 0 0 0 0 0 0 0 0 0 0 0 0
1 1 1 0 0 0 0 0 0 0 0 0 0 0 0 0 0 0 0 0 0 0 0 0 0 0 0 0 0 0 0 0 0 0 0 0 0 0 0 0 0 0 0
1 1 0 0 0 0 0 0 0 0 0 0 0 0 0 0 0 0 0 0 0 0 0 0 0 0 0 0 0 0 0 0 0 0 0 0 0 0 0 0 0 0 0
0 0 0 0 0 0 0 0 0 0 0 0 0 0 0 0 0 0 0 0 0 0 0 0 0 0 0 0 0 0 0 0 0 0 0 0 0 0 0 0 0 0 0
0 0 0 0 0 0 0 0 0 0 0 0 0 0 0 0 0 0 0 0 0 0 0 0 0 0 0 0 0 0 0 0 0 0 0 0 0 0 0 0 0 0 0
0 0 0 0 0 0 0 0 0 0 0 0 0 0 0 0 0 0 0 0 0 0 0 0 0 0 0 0 0 0 0 0 0 0 0 0 0 0 0 0 0 0 0

GEFSMW_con_probscp_186.txt.gz
Probability
19 18 20 24 25 21 18 17 13 9 6 4 2 1 2 3 3 2 1 2 2 2 1 0 0 1 2 1 0 0 0 0 0 0 0 0 0 0 0 0 0 0 0
20 19 21 26 27 22 18 16 12 7 4 3 2 1 1 2 3 2 1 1 1 1 2 1 1 1 2 1 1 0 0 0 0 0 0 0 0 0 0 0 0 0 0
19 19 22 27 27 22 18 15 10 4 1 1 1 1 0 1 1 1 1 0 0 1 2 2 1 1 2 2 1 0 0 0 0 0 0 0 0 0 0 0 0 0 0
16 18 22 27 26 21 16 12 8 3 1 0 0 0 0 0 0 0 0 0 0 0 1 1 1 1 2 2 1 0 0 0 0 0 0 0 0 0 0 0 0 0 0
14 17 23 26 23 17 12 9 6 3 1 1 0 0 0 0 0 0 0 0 0 0 0 0 0 0 1 1 0 0 0 0 0 0 0 0 0 0 0 0 0 0 0
14 18 22 23 17 11 8 7 6 5 4 3 1 1 1 0 0 0 0 0 0 0 0 0 0 0 0 0 0 0 0 0 0 0 0 0 0 0 0 0 0 0 0
13 17 20 17 10 5 4 5 6 7 7 5 3 3 2 1 1 1 1 0 0 0 0 0 0 0 0 0 0 0 0 0 0 0 0 0 0 0 0 0 0 0 0
10 13 14 10 5 3 3 4 6 8 7 5 4 4 4 3 2 2 2 1 0 0 0 0 0 0 0 0 0 0 0 0 0 0 0 0 0 0 0 0 0 0 0
8 8 8 6 4 3 3 4 6 7 6 5 4 4 4 3 3 3 2 1 0 0 0 0 0 0 0 0 0 0 0 0 0 0 0 0 0 0 0 0 0 0 0
7 6 4 3 3 3 3 4 5 6 6 6 5 4 3 3 3 2 1 0 0 0 0 0 0 0 0 0 0 0 0 0 0 0 0 0 0 0 0 0 0 0 0
6 4 2 1 2 3 3 3 4 4 5 5 4 3 3 2 2 1 0 0 0 0 0 0 0 0 0 0 0 0 0 0 0 0 0 0 0 0 0 0 0 0 0
4 3 1 1 2 3 3 4 3 3 4 4 3 2 1 1 1 0 0 0 0 0 0 0 0 0 0 0 0 0 0 0 0 0 0 0 0 0 0 0 0 0 0
2 1 0 1 2 3 4 5 4 3 3 3 2 1 0 0 0 0 0 0 0 0 0 0 0 0 0 0 0 0 0 0 0 0 0 0 0 0 0 0 0 0 0
2 1 0 0 1 3 4 5 5 4 3 3 2 1 0 0 0 0 0 0 0 0 0 0 0 0 0 0 0 0 0 0 0 0 0 0 0 0 0 0 0 0 0
1 1 1 1 1 3 5 5 4 3 3 3 2 1 0 0 0 0 0 0 0 0 0 0 0 0 0 0 0 0 0 0 0 0 0 0 0 0 0 0 0 0 0
0 0 1 2 2 3 4 4 3 3 3 3 2 1 0 0 0 0 0 0 0 0 0 0 0 0 0 0 0 0 0 0 0 0 0 0 0 0 0 0 0 0 0
0 0 0 1 2 3 3 3 3 3 3 3 2 1 0 0 0 0 0 0 0 0 0 0 0 0 0 0 0 0 0 0 0 0 0 0 0 0 0 0 0 0 0
0 0 0 0 1 2 3 3 3 3 2 1 1 0 0 0 0 0 0 0 0 0 0 0 0 0 0 0 0 0 0 0 0 0 0 0 0 0 0 0 0 0 0
0 0 0 0 0 1 3 3 3 2 1 0 0 0 0 0 0 0 0 0 0 0 0 0 0 0 0 0 0 0 0 0 0 0 0 0 0 0 0 0 0 0 0
0 0 0 0 0 1 2 2 2 1 0 0 0 0 0 0 0 0 0 0 0 0 0 0 0 0 0 0 0 0 0 0 0 0 0 0 0 0 0 0 0 0 0
0 0 0 0 0 0 1 1 1 0 0 0 0 0 0 0 0 0 0 0 0 0 0 0 0 0 0 0 0 0 0 0 0 0 0 0 0 0 0 0 0 0 0
0 0 0 0 0 0 0 0 0 0 0 0 0 0 0 0 0 0 0 0 0 0 0 0 0 0 0 0 0 0 0 0 0 0 0 0 0 0 0 0 0 0 0
0 0 0 0 0 0 0 0 0 0 0 0 0 0 0 0 0 0 0 0 0 0 0 0 0 0 0 0 0 0 0 0 0 0 0 0 0 0 0 0 0 0 0
0 0 0 0 0 0 0 0 0 0 0 0 0 0 0 0 0 0 0 0 0 0 0 0 0 0 0 0 0 0 0 0 0 0 0 0 0 0 0 0 0 0 0
0 0 0 0 0 0 0 0 0 0 0 0 0 0 0 0 0 0 0 0 0 0 0 0 0 0 0 0 0 0 0 0 0 0 0 0 0 0 0 0 0 0 0
0 0 0 0 0 0 1 1 1 0 0 0 0 0 0 0 0 0 0 0 0 0 0 0 0 0 0 0 0 0 0 0 0 0 0 0 0 0 0 0 0 0 0

GEFSMW_con_probscp_192.txt.gz
Probability
22 25 29 29 30 34 39 39 36 36 35 30 25 23 23 22 18 14 12 8 4 3 5 10 14 17 16 12 13 15 13 9 7 6 6 3 1 2 7 10 12 14 15
23 25 28 29 31 35 40 41 38 36 35 31 27 26 24 21 17 16 15 10 5 4 5 9 12 15 14 12 12 14 14 11 8 7 6 4 2 1 5 9 12 13 14
21 23 26 30 33 38 41 42 40 38 35 31 28 26 23 19 17 17 16 11 7 5 5 7 9 11 11 11 12 14 15 14 12 10 8 7 5 2 3 8 11 11 11
18 19 24 31 37 39 40 40 40 39 37 33 29 26 21 18 16 16 15 12 8 5 5 5 6 8 10 11 12 13 15 16 16 13 10 8 7 4 4 6 9 9 8
17 18 23 31 36 37 37 38 37 37 36 34 31 26 21 17 15 14 13 12 11 7 5 4 4 6 10 11 11 12 14 16 16 14 10 7 7 7 5 4 5 5 5
17 21 27 31 34 35 35 34 33 32 31 30 28 25 19 16 14 12 11 11 12 9 6 4 5 8 10 11 10 10 12 14 14 12 9 7 7 7 6 3 1 1 2
17 22 28 31 32 34 33 30 27 25 23 23 22 19 15 14 13 12 11 10 9 8 6 5 6 8 9 8 8 8 8 9 9 8 8 7 5 6 6 4 1 0 0
15 19 24 27 27 27 25 23 21 19 17 17 17 15 14 14 13 14 12 10 7 5 4 5 6 8 8 7 5 5 5 5 5 5 6 6 5 5 5 4 2 1 0
15 17 20 22 21 20 17 15 15 14 14 14 13 14 14 15 14 14 13 9 6 4 4 5 7 7 7 6 4 3 3 3 4 4 5 7 6 5 5 4 3 1 0
16 17 17 17 18 16 13 12 11 13 14 14 14 14 15 15 14 14 12 10 7 5 4 5 6 6 5 5 4 3 3 3 4 4 5 7 7 6 5 5 3 1 0
14 13 12 12 13 11 10 10 10 12 13 14 15 15 15 14 13 13 12 10 8 4 3 3 3 3 3 3 3 3 3 3 3 4 4 5 5 5 4 4 3 1 0
9 8 7 8 7 6 6 8 9 10 10 10 11 13 13 11 10 11 10 9 6 3 1 1 1 1 1 3 3 3 3 3 3 3 3 3 4 4 3 3 1 0 0
6 4 5 7 6 4 4 5 7 6 6 5 6 8 9 8 8 7 6 5 4 1 0 0 0 0 1 2 3 2 2 3 3 3 3 3 4 4 3 1 0 0 0
2 2 3 5 6 5 3 4 5 5 5 4 5 6 6 6 6 5 4 3 2 1 0 0 0 0 0 1 1 1 1 2 3 3 3 3 3 3 1 0 0 0 1
1 1 1 2 5 6 4 4 4 5 6 6 6 6 6 6 6 5 4 3 2 1 0 0 0 0 0 0 0 0 0 1 1 3 3 3 2 1 0 0 0 1 2
1 0 0 0 2 4 5 4 3 3 4 5 6 6 6 5 5 4 2 1 1 0 0 0 0 0 0 0 0 0 0 0 1 2 2 2 1 0 0 0 0 1 2
1 1 1 0 1 2 3 3 2 2 2 3 4 5 4 2 2 1 1 1 0 0 0 0 0 0 0 0 0 0 0 0 0 1 1 1 0 0 0 0 0 0 1
2 2 1 0 0 1 2 1 1 1 1 1 2 3 3 1 0 0 0 0 0 0 0 0 0 0 0 0 0 0 0 0 0 0 0 0 0 0 0 0 0 0 0
2 2 1 0 0 1 1 0 0 0 0 0 1 2 3 1 0 0 0 0 0 0 0 0 0 0 0 0 0 0 0 0 0 0 0 0 0 0 0 0 0 0 0
1 1 0 0 0 0 0 0 0 0 0 0 0 1 2 2 1 1 0 0 0 1 0 0 0 0 0 0 0 0 0 0 0 0 0 0 0 0 0 0 0 0 0
0 0 0 0 0 0 0 0 0 0 0 0 0 0 1 2 2 2 1 0 0 0 0 0 0 0 0 0 0 0 0 0 0 0 0 0 0 0 0 0 0 0 0
0 0 0 0 0 0 0 1 1 1 0 0 0 0 0 2 3 3 2 1 0 0 0 0 0 0 0 0 0 0 0 0 0 0 0 0 0 0 0 0 0 0 0
0 0 0 0 0 0 1 2 2 1 0 0 0 0 1 2 3 3 3 2 1 0 0 0 0 0 1 1 1 0 0 0 0 0 0 0 0 0 0 0 0 0 0
0 0 0 0 0 0 1 1 1 0 0 0 0 0 1 2 3 3 3 2 1 0 0 0 0 0 1 1 1 0 0 0 0 0 0 0 0 0 0 1 1 1 1
0 0 0 0 1 1 0 0 0 0 0 0 0 0 0 1 2 2 2 2 1 0 0 0 0 0 0 0 0 0 0 0 0 0 0 0 0 0 1 2 2 2 1
0 0 0 1 2 2 1 0 0 0 0 0 0 0 0 0 1 1 1 1 0 0 0 0 0 0 0 0 0 0 0 0 0 0 0 0 0 0 1 2 3 1 0